Location: Wingville
(42.9917°N, 90.4915°W)
Time: 11:11:01
(UTC+00:00)

Cosmos 1805 Rocket - Pass Details

Date: 05 December 2022
Orbit: 605 x 629 km, 82.5° (Epoch: 30 January)

Event Time Altitude Azimuth Distance (km) Brightness Sun altitude
Rises 01:51:13 0° 334° (NNW) 2,915 7.3 -36.5°
Reaches altitude 10° 01:54:09 10° 313° (NW) 2,006 6.6 -37.0°
Enters shadow 01:55:16 14° 300° (WNW) 1,769 6.4 -37.2°
Exits shadow 02:00:16 - 230° (SW) 2,167 6.8 -38.1°
Sets 02:02:35 0° 216° (SW) 2,905 7.3 -38.5°
